Home > Weather > Myrtle Beach > Past weeks

Flag for USA Past Weather in Myrtle Beach, South Carolina, USA — Yesterday and Last 2 Weeks

Now
82 °F

Clear.


Feels Like: 86 °F
Forecast: 77 / 91 °F
Wind: 12 mph from Southwest

Location: Myrtle Beach Air Force Base

Current Time: Jul 25, 2016 at 10:46:40 PM

Latest Report: Jul 25, 2016 at 9:45 PM


Visibility: 10 mi

Pressure: 30.06 "Hg

Humidity: 66%

Dew Point: 70 °F

Location of Myrtle BeachLocation

Past Weather in Myrtle Beach — Graph

°F

Myrtle Beach Temperature Yesterday

Maximum temperature yesterday: 90 °F (at 10:50 AM)
Minimum temperature yesterday: 81 °F (at 1:55 AM)
Average temperature yesterday: 84 °F

High & Low Weather Summary for the Past Weeks

 TemperatureHumidityPressure
High97 °F (Jul 13, 1:47 PM)79% (Jul 16, 12:15 AM)30.28 "Hg (Jul 16, 12:15 AM)
Low72 °F (Jul 11, 10:55 PM)39% (Jul 13, 1:47 PM)29.98 "Hg (Jul 23, 4:45 PM)
Average81 °F67%30.11 "Hg
* Reported Jul 10 7:53 PM — Jul 25 7:45 PM, Myrtle Beach, Weather by CustomWeather, © 2016

Note: Actual official high and low records may vary slightly from our data, if they occured in-between our weather recording intervals... More about our weather records

Advertising

Myrtle Beach Weather History for the Previous 24 Hours

Scroll right to see more
 ConditionsComfort  
Time TempWeatherWind HumidityBarometerVisibility
7:45 PM
Mon, Jul 25
86 °FSunny.17 mph59%30.03 "Hg10 mi
5:45 PM88 °FSunny.17 mph59%30.03 "Hg10 mi
4:45 PM90 °FScattered clouds.17 mph52%30.03 "Hg10 mi
3:45 PM90 °FScattered clouds.17 mph52%30.04 "Hg10 mi
2:45 PM90 °FScattered clouds.17 mph55%30.07 "Hg10 mi
1:50 PM90 °FScattered clouds.16 mph55%30.07 "Hg10 mi
12:45 PM90 °FScattered clouds.17 mph52%30.09 "Hg10 mi
11:45 AM90 °FScattered clouds.12 mph52%30.10 "Hg10 mi
10:45 AM90 °FPartly sunny.8 mph55%30.11 "Hg10 mi
9:45 AM86 °FPartly sunny.8 mph59%30.11 "Hg10 mi
8:50 AM86 °FPassing clouds.8 mph62%30.11 "Hg10 mi
6:45 AM81 °FPassing clouds.6 mph70%30.09 "Hg10 mi
6:15 AM81 °FPassing clouds.3 mph70%30.09 "Hg10 mi
5:55 AM81 °FPassing clouds.No wind70%30.08 "Hg10 mi
5:35 AM81 °FPassing clouds.3 mph74%30.08 "Hg10 mi
5:15 AM81 °FPassing clouds.5 mph70%30.07 "Hg10 mi
4:55 AM81 °FClear.3 mph74%30.06 "Hg10 mi
4:35 AM81 °FClear.5 mph70%30.06 "Hg10 mi
4:15 AM81 °FClear.5 mph74%30.06 "Hg10 mi
3:55 AM81 °FPassing clouds.3 mph70%30.06 "Hg10 mi
3:35 AM81 °FOvercast.5 mph74%30.07 "Hg10 mi
3:15 AM81 °FPassing clouds.5 mph70%30.07 "Hg10 mi
2:55 AM81 °FClear.5 mph70%30.07 "Hg10 mi
2:35 AM81 °FClear.3 mph70%30.07 "Hg10 mi
2:15 AM81 °FClear.5 mph70%30.07 "Hg10 mi
1:55 AM82 °FClear.5 mph66%30.07 "Hg10 mi
1:35 AM82 °FClear.3 mph66%30.07 "Hg10 mi
1:15 AM82 °FClear.3 mph66%30.07 "Hg10 mi
12:55 AM82 °FClear.5 mph70%30.07 "Hg10 mi
12:35 AM82 °FClear.6 mph70%30.07 "Hg10 mi
12:15 AM82 °FClear.5 mph66%30.07 "Hg10 mi
11:55 PM
Sun, Jul 24
82 °FClear.6 mph70%30.07 "Hg10 mi
11:35 PM82 °FClear.6 mph70%30.07 "Hg10 mi
11:15 PM82 °FClear.6 mph70%30.07 "Hg10 mi
10:45 PM84 °FClear.9 mph66%30.07 "Hg10 mi
Weather by CustomWeather, © 2016

See weather overviewHow to use our weather pages